Weather reports worldwide

Advertisment
Doberlug/Kirchhain, Germany (10490): temperature & dewpoint: 06.12.2018 00:00:00 - 12.12.2018 00:00:00 (CET)Doberlug/Kirchhain, Germany (10490): temperature 5cm & temperature -5cm: 06.12.2018 00:00:00 - 12.12.2018 00:00:00 (CET)Doberlug/Kirchhain, Germany (10490): temperature -20cm & temperature -100cm: 06.12.2018 00:00:00 - 12.12.2018 00:00:00 (CET)Doberlug/Kirchhain, Germany (10490): wind speed & gusts: 06.12.2018 00:00:00 - 12.12.2018 00:00:00 (CET)Doberlug/Kirchhain, Germany (10490): wind direction: 06.12.2018 00:00:00 - 12.12.2018 00:00:00 (CET)Doberlug/Kirchhain, Germany (10490): reduced air pressure: 06.12.2018 00:00:00 - 12.12.2018 00:00:00 (CET)Doberlug/Kirchhain, Germany (10490): visibility: 06.12.2018 00:00:00 - 12.12.2018 00:00:00 (CET)Doberlug/Kirchhain, Germany (10490): sunshine duration: 06.12.2018 00:00:00 - 12.12.2018 00:00:00 (CET)Doberlug/Kirchhain, Germany (10490): precipitation: 06.12.2018 00:00:00 - 12.12.2018 00:00:00 (CET)
Date & Time tt [°C] td [°C] tt 5cm [°C] tt -5cm [°C] tt -20cm [°C] tt -100cm [°C] ff [km/h] ff [kn] fx [km/h] fx [kn] dd ppp [hPa] vv [km] sd [min] rr [mm]
12.12.2018 00:00:00 2,7 1,9 2,2 2,8 4,0 6,8 13 7 23 12 NW 1019,1 26 0 0,0
11.12.2018 23:00:00 2,9 2,2 2,4 3,0 4,1 6,8 14 7 24 13 NNW 1018,8 41 0 0,0
11.12.2018 22:00:00 3,3 2,6 2,9 3,3 4,1 6,9 18 10 30 16 NNW 1018,3 20 0 0,2
11.12.2018 21:00:00 3,4 2,7 2,9 3,4 4,1 6,9 21 11 29 16 NW 1017,8 10 0 0,4
11.12.2018 20:00:00 3,5 2,8 3,1 3,4 4,1 6,9 19 10 32 17 NW 1017,5 14 0 0,1
11.12.2018 19:00:00 3,5 2,7 3,1 3,4 4,1 6,9 19 10 29 16 NW 1017,2 14 0 0,1
11.12.2018 18:00:00 3,4 2,7 3,0 3,4 4,1 6,9 21 11 32 17 WNW 1016,7 16 0 0,2
11.12.2018 17:00:00 3,4 2,5 2,9 3,4 4,1 6,9 21 12 31 17 WNW 1016,4 12 0 0,2
11.12.2018 16:00:00 3,3 2,9 3,0 3,4 4,2 6,9 8 5 13 7 WNW 1016,1 9 0 0,3
11.12.2018 15:00:00 2,4 2,1 2,2 3,3 4,2 6,9 8 4 21 11 NNW 1015,9 7 0 0,3
11.12.2018 14:00:00 2,1 1,4 2,0 3,5 4,2 6,9 16 9 35 19 N 1015,4 8 0 0,2
11.12.2018 13:00:00 4,3 2,1 4,0 3,9 4,2 6,9 27 15 38 20 NW 1014,5 43 0 0,0
11.12.2018 12:00:00 4,0 2,2 3,7 3,7 4,1 6,9 27 15 41 22 WNW 1014,0 35 0 0,0
11.12.2018 11:00:00 3,9 2,2 3,4 3,5 4,1 6,9 24 13 44 24 WNW 1013,8 38 0 0,2
11.12.2018 10:00:00 4,0 2,1 3,6 3,4 4,1 7,0 31 17 45 25 WNW 1013,1 25 0 0,0
11.12.2018 09:00:00 3,8 2,2 3,1 3,3 4,1 7,0 31 17 44 24 WNW 1012,4 30 0 0,4
11.12.2018 08:00:00 3,5 2,1 2,9 3,3 4,1 7,0 29 16 50 27 WNW 1011,8 8 0 0,7
11.12.2018 07:00:00 3,9 1,9 3,0 3,3 4,1 7,0 32 17 50 27 WNW 1011,4 7 0 0,4
11.12.2018 06:00:00 4,4 1,6 3,7 3,3 4,1 7,0 32 18 52 28 W 1011,3 27 0 0,0
11.12.2018 05:00:00 4,5 1,8 4,1 3,3 4,1 7,0 27 15 40 22 WNW 1011,7 35 0 0,0
11.12.2018 04:00:00 4,3 1,9 3,8 3,2 4,1 7,0 27 15 41 22 W 1011,7 38 0 0,0
11.12.2018 03:00:00 4,1 1,8 3,6 3,1 4,1 7,0 24 13 41 22 W 1011,8 39 0 0,0
11.12.2018 02:00:00 3,8 1,7 3,0 3,2 4,2 7,0 29 16 42 23 W 1011,5 34 0 0,0
11.12.2018 01:00:00 3,9 2,1 3,4 3,2 4,2 7,0 29 16 47 25 WNW 1011,6 42 0 0,0
11.12.2018 00:00:00 3,6 2,1 3,0 3,2 4,2 7,0 29 16 45 25 W 1011,5 39 0 0,1
10.12.2018 23:00:00 3,4 2,0 2,7 3,2 4,2 7,0 24 13 45 25 W 1011,6 35 0 0,2
10.12.2018 22:00:00 3,8 1,2 3,5 3,2 4,3 7,0 28 15 46 25 W 1011,6 45 0 0,0
10.12.2018 21:00:00 3,7 1,0 3,4 3,1 4,3 7,0 26 14 54 29 W 1012,0 54 0 0,0
10.12.2018 20:00:00 4,1 0,7 3,7 3,0 4,4 7,0 37 20 58 31 W 1012,2 55 0 0,0
10.12.2018 19:00:00 4,2 0,5 3,7 3,2 4,5 7,0 28 15 45 25 W 1012,3 62 0 0,0
10.12.2018 18:00:00 4,1 0,4 3,1 3,3 4,6 7,1 31 17 49 27 W 1012,5 22 0 0,0
10.12.2018 17:00:00 4,6 0,0 4,1 3,4 4,7 7,1 31 17 50 27 W 1012,5 57 0 0,0
10.12.2018 16:00:00 4,6 -0,3 3,9 3,6 4,8 7,1 28 15 52 28 W 1012,3 65 0 0,0
10.12.2018 15:00:00 5,1 0,3 4,6 4,1 4,8 7,1 29 15 48 26 W 1012,0 58 0 0,0
10.12.2018 14:00:00 5,1 0,3 4,7 4,3 4,8 7,1 29 16 57 31 W 1011,9 48 22 0,0
10.12.2018 13:00:00 5,0 0,5 4,7 4,1 4,8 7,1 35 19 56 30 W 1012,0 50 16 0,0
10.12.2018 12:00:00 4,6 0,9 3,7 4,1 4,8 7,1 34 18 55 30 W 1012,3 51 3 0,1
10.12.2018 11:00:00 4,8 1,0 4,2 4,0 4,8 7,1 29 16 49 26 W 1012,0 52 2 0,0
10.12.2018 10:00:00 4,6 1,2 4,2 3,8 4,9 7,1 33 18 48 26 WNW 1011,7 47 0 0,0
10.12.2018 09:00:00 4,4 1,5 3,9 3,8 4,9 7,1 27 15 52 28 W 1010,9 46 0 0,0
10.12.2018 08:00:00 4,6 1,5 4,3 3,8 5,0 7,1 31 17 46 25 WNW 1010,2 53 0 0,0
10.12.2018 07:00:00 4,8 1,7 4,3 3,9 5,1 7,1 32 17 50 27 W 1009,5 55 0 0,0
10.12.2018 06:00:00 5,0 1,7 4,4 4,0 5,2 7,0 31 17 48 26 W 1008,7 53 0 0,0
10.12.2018 05:00:00 5,1 1,9 4,5 4,1 5,3 7,0 31 17 47 25 W 1007,8 46 0 0,0
10.12.2018 04:00:00 5,0 1,6 4,0 4,2 5,4 7,0 31 17 51 27 WNW 1007,1 46 0 0,0
10.12.2018 03:00:00 5,4 2,2 4,8 4,5 5,6 7,0 32 17 50 27 W 1006,3 36 0 0,0
10.12.2018 02:00:00 5,5 2,4 4,9 4,7 5,7 7,0 33 18 53 29 W 1005,5 40 0 0,0
10.12.2018 01:00:00 5,6 2,6 5,0 4,7 5,8 7,0 31 17 51 28 W 1004,5 52 0 0,0
10.12.2018 00:00:00 6,1 2,5 5,4 5,1 5,9 7,0 31 17 51 28 W 1003,7 54 0 0,0
09.12.2018 23:00:00 6,5 3,2 6,0 5,4 5,9 7,0 35 19 54 29 W 1002,8 56 0 0,0
09.12.2018 22:00:00 6,6 3,8 5,4 5,6 6,0 7,0 26 14 50 27 W 1001,6 57 0 0,1
09.12.2018 21:00:00 6,8 4,4 6,1 5,6 6,0 7,0 27 14 42 23 W 1000,4 39 0 0,1
09.12.2018 20:00:00 6,9 4,5 6,0 5,7 6,0 7,0 25 14 46 25 W 999,5 62 0 0,0
09.12.2018 19:00:00 7,2 4,4 6,3 5,7 6,1 7,0 27 15 41 22 W 998,3 70 0 0,0
09.12.2018 18:00:00 7,4 4,5 6,4 5,7 6,1 7,0 22 12 35 19 WSW 997,4 49 0 0,1
09.12.2018 17:00:00 7,1 4,7 6,0 5,8 6,2 7,0 23 12 36 20 WSW 996,7 20 0 0,0
09.12.2018 16:00:00 6,5 4,8 6,0 5,8 6,3 7,0 22 12 32 18 W 996,4 70 0 0,0
09.12.2018 15:00:00 6,1 4,8 5,3 6,3 6,3 7,0 22 12 42 23 W 995,5 70 1 0,7
09.12.2018 14:00:00 6,4 4,4 5,4 6,6 6,3 7,0 34 19 52 28 WNW 995,0 7 0 0,3
09.12.2018 13:00:00 8,1 4,9 6,6 6,8 6,2 7,0 26 14 45 24 W 993,6 36 0 0,5
09.12.2018 12:00:00 8,1 4,8 7,5 6,8 6,1 7,0 29 16 52 28 WSW 993,7 48 0 0,0
09.12.2018 11:00:00 8,3 4,3 7,2 6,4 6,0 7,0 29 16 51 28 WSW 993,3 49 0 0,0
09.12.2018 10:00:00 8,0 4,3 7,1 6,1 5,9 7,0 32 17 53 29 WSW 992,9 37 0 0,0
09.12.2018 09:00:00 7,9 4,1 7,2 6,0 5,9 7,0 26 14 55 30 WSW 992,2 70 0 0,0
09.12.2018 08:00:00 7,9 4,7 7,0 6,0 5,9 7,0 25 14 39 21 WSW 991,6 70 0 0,0
09.12.2018 07:00:00 8,1 5,2 6,8 6,0 5,8 7,0 25 14 43 23 WSW 990,9 19 0 0,0
09.12.2018 06:00:00 8,8 5,4 7,6 5,9 5,7 7,0 23 12 44 24 SW 990,4 70 0 0,0
09.12.2018 05:00:00 8,7 5,3 7,1 5,7 5,7 7,0 23 13 59 32 SW 990,2 24 0 0,0
09.12.2018 04:00:00 8,6 5,2 7,5 5,7 5,6 7,0 24 13 45 24 SW 990,6 70 0 0,0
09.12.2018 03:00:00 7,5 5,6 6,5 5,6 5,5 7,0 22 12 37 20 SSW 991,8 70 0 1,4
09.12.2018 02:00:00 7,4 5,7 6,2 5,3 5,4 7,0 19 10 40 21 SSW 993,5 12 0 1,0
09.12.2018 01:00:00 8,1 4,1 6,9 4,9 5,4 7,0 18 10 31 17 SSW 995,3 70 0 0,0
09.12.2018 00:00:00 6,5 4,2 5,3 4,6 5,5 6,9 16 9 30 16 SSW 997,3 27 0 0,1
08.12.2018 23:00:00 6,4 3,2 4,2 4,5 5,7 6,9 14 8 34 18 SSW 998,8 70 0 0,0
08.12.2018 22:00:00 7,4 3,6 5,9 5,1 5,7 6,9 18 10 36 19 SW 1000,0 70 0 0,0
08.12.2018 21:00:00 7,3 3,9 5,9 5,2 5,8 6,9 21 11 34 18 SW 1000,8 70 0 0,0
08.12.2018 20:00:00 7,0 4,4 5,7 5,4 5,8 6,9 19 11 37 20 SW 1001,4 70 0 0,0
08.12.2018 19:00:00 7,0 4,3 6,2 5,3 5,9 6,9 18 10 31 17 SW 1001,7 70 0 0,0
08.12.2018 18:00:00 6,6 4,7 5,6 5,5 5,9 6,9 16 9 33 18 SW 1001,9 70 0 0,0
08.12.2018 17:00:00 6,3 4,8 5,4 5,7 5,9 6,9 18 10 41 22 SSW 1002,2 47 0 1,1
08.12.2018 16:00:00 7,2 3,9 5,6 5,9 5,9 6,9 22 12 45 25 SW 1002,1 22 0 0,5
08.12.2018 15:00:00 8,6 2,7 7,7 6,2 5,8 6,9 22 12 42 23 SW 1002,1 70 0 0,0
08.12.2018 14:00:00 8,3 2,7 7,7 6,0 5,7 6,9 23 12 42 23 SW 1002,6 70 0 0,0
08.12.2018 13:00:00 8,1 2,6 7,7 5,8 5,5 6,8 25 13 45 24 SW 1003,0 70 0 0,0
08.12.2018 12:00:00 7,7 2,4 7,1 5,4 5,4 6,8 24 13 46 25 SW 1003,7 66 33 0,0
08.12.2018 11:00:00 7,4 2,2 6,6 4,7 5,4 6,8 25 14 45 25 SW 1004,5 63 49 0,0
08.12.2018 10:00:00 6,8 1,7 6,6 4,1 5,4 6,8 22 12 38 21 SW 1005,2 54 49 0,0
08.12.2018 09:00:00 5,2 1,5 3,7 3,5 5,7 6,8 14 8 30 16 SSW 1005,3 67 0 0,0
08.12.2018 08:00:00 5,0 1,7 3,2 3,7 6,0 6,7 19 11 32 17 SSW 1005,9 70 0 0,0
08.12.2018 07:00:00 5,0 1,9 3,3 4,3 6,3 6,7 14 8 29 16 SSW 1005,9 70 0 0,0
08.12.2018 06:00:00 5,7 2,5 3,5 5,0 6,6 6,7 18 10 30 16 SW 1005,5 70 0 0,0
08.12.2018 05:00:00 6,4 2,7 5,5 5,3 6,9 6,7 19 11 44 24 WSW 1004,4 70 0 0,0
08.12.2018 04:00:00 7,1 3,3 6,0 5,9 7,1 6,6 28 15 43 23 W 1002,9 70 0 0,0
08.12.2018 03:00:00 7,4 3,7 6,2 6,6 7,4 6,6 30 16 54 29 W 1002,4 66 0 0,0
08.12.2018 02:00:00 7,8 4,6 7,0 7,5 7,5 6,6 38 21 65 35 WNW 1001,2 70 0 0,5
08.12.2018 01:00:00 10,2 7,1 8,5 7,8 7,5 6,6 25 13 43 23 SW 998,8 24 0 0,0
08.12.2018 00:00:00 10,4 6,2 9,1 7,7 7,6 6,6 23 12 37 20 SW 998,5 70 0 0,0
07.12.2018 23:00:00 9,8 6,9 8,9 7,8 7,7 6,5 13 7 26 14 SSW 998,8 70 0 0,0
07.12.2018 22:00:00 9,8 7,9 8,5 8,2 7,7 6,5 15 8 25 13 SSW 999,3 68 0 0,0
07.12.2018 21:00:00 9,9 8,6 9,0 8,5 7,7 6,5 13 7 29 15 SSW 1000,3 70 0 0,2
07.12.2018 20:00:00 9,8 9,2 9,1 8,6 7,7 6,5 15 8 40 22 SSW 1000,9 23 0 3,6
07.12.2018 19:00:00 10,2 9,2 9,3 8,7 7,7 6,5 16 9 29 16 SSW 1001,7 6 0 0,9
07.12.2018 18:00:00 10,6 9,2 9,6 8,8 7,7 6,4 16 8 24 13 S 1002,0 26 0 0,0
07.12.2018 17:00:00 10,7 9,4 9,7 9,0 7,7 6,4 13 7 30 16 SSW 1003,4 20 0 0,0
07.12.2018 16:00:00 11,1 9,7 10,1 9,3 7,6 6,4 20 11 35 19 SSW 1004,5 64 0 0,1
07.12.2018 15:00:00 11,4 10,5 10,6 9,5 7,4 6,4 18 10 31 17 SW 1005,5 70 0 0,4
07.12.2018 14:00:00 11,3 10,6 10,7 9,5 7,2 6,4 13 7 27 14 SSW 1006,4 24 0 0,5
07.12.2018 13:00:00 11,6 10,8 10,9 9,4 7,0 6,4 14 8 24 13 SW 1007,4 14 0 0,1
07.12.2018 12:00:00 11,3 10,6 10,8 9,0 6,7 6,4 14 7 26 14 SSW 1008,3 19 0 0,4
07.12.2018 11:00:00 11,3 10,3 10,6 8,5 6,5 6,4 15 8 26 14 SSW 1009,5 30 0 0,0
07.12.2018 10:00:00 11,0 10,1 10,2 8,2 6,3 6,4 13 7 23 12 SW 1010,1 40 0 0,0
07.12.2018 09:00:00 10,5 10,0 9,7 7,9 6,2 6,4 11 6 24 13 SSW 1010,6 23 0 0,6
07.12.2018 08:00:00 10,4 9,9 9,6 7,7 6,0 6,4 13 7 24 13 SW 1011,1 2,5 0 0,5
07.12.2018 07:00:00 10,8 9,3 9,6 7,5 5,8 6,4 14 8 34 19 SSW 1011,2 45 0 0,2
07.12.2018 06:00:00 11,3 8,8 10,4 7,3 5,6 6,4 18 10 32 17 SW 1011,5 38 0 0,0
07.12.2018 05:00:00 11,0 8,1 10,2 7,0 5,4 6,4 16 8 27 15 SW 1012,1 36 0 0,0
07.12.2018 04:00:00 10,8 7,8 9,8 6,7 5,2 6,4 16 9 27 15 SW 1012,8 33 0 0,0
07.12.2018 03:00:00 10,7 7,4 9,6 6,4 5,1 6,4 16 9 27 14 SW 1013,5 42 0 0,0
07.12.2018 02:00:00 10,1 7,1 9,0 6,1 4,9 6,4 14 7 24 13 SW 1014,1 45 0 0,0
07.12.2018 01:00:00 9,4 6,9 8,4 5,9 4,7 6,4 14 7 26 14 SSW 1014,8 45 0 0,0
07.12.2018 00:00:00 8,8 6,9 7,9 5,7 4,6 6,4 13 7 23 12 SSW 1015,3 44 0 0,0
06.12.2018 23:00:00 8,6 7,1 7,7 5,5 4,4 6,4 13 7 20 11 SSW 1015,7 28 0 0,0
06.12.2018 22:00:00 8,3 7,1 7,4 5,4 4,2 6,4 11 6 24 13 SSW 1016,0 22 0 0,0
06.12.2018 21:00:00 8,3 7,2 7,4 5,2 4,0 6,4 18 10 28 15 SW 1016,3 20 0 0,1
06.12.2018 20:00:00 7,5 7,0 6,9 4,8 3,9 6,4 15 8 24 13 SW 1016,8 7 0 0,1
06.12.2018 19:00:00 6,8 6,5 6,2 4,5 3,7 6,4 11 6 20 11 SSW 1016,9 4,8 0 0,1
06.12.2018 18:00:00 7,2 5,1 6,3 4,2 3,6 6,5 11 6 18 10 SSW 1017,0 8 0 0,0
06.12.2018 17:00:00 6,7 3,6 6,0 4,0 3,4 6,5 10 5 18 10 S 1016,8 28 0 0,0
06.12.2018 16:00:00 6,4 3,1 5,7 4,1 3,2 6,5 12 6 19 10 S 1016,4 34 0 0,0
06.12.2018 15:00:00 7,0 3,3 6,5 4,1 2,9 6,5 8 4 17 9 S 1017,0 36 0 0,0
06.12.2018 14:00:00 7,0 2,3 6,8 3,8 2,6 6,5 11 6 23 13 S 1016,7 36 0 0,0
06.12.2018 13:00:00 5,7 0,9 5,6 3,0 2,2 6,5 13 7 23 13 S 1016,9 39 0 0,0
06.12.2018 12:00:00 5,4 -0,2 5,2 2,3 1,9 6,6 12 7 22 12 S 1017,9 38 0 0,0
06.12.2018 11:00:00 4,4 -1,0 4,2 0,7 1,8 6,6 14 8 28 15 S 1018,2 42 7 0,0
06.12.2018 10:00:00 3,4 -1,8 2,2 0,5 1,8 6,6 14 8 25 14 S 1018,0 13 0 0,0
06.12.2018 09:00:00 3,3 -1,9 2,4 0,4 1,8 6,6 9 5 23 13 S 1018,7 41 0 0,0
06.12.2018 08:00:00 3,2 -2,2 2,2 0,4 1,9 6,6 17 9 32 17 S 1018,1 42 0 0,0
06.12.2018 07:00:00 3,5 -2,5 2,3 0,4 1,9 6,6 16 8 26 14 S 1018,4 60 0 0,0
06.12.2018 06:00:00 3,2 -2,6 2,1 0,4 1,9 6,7 11 6 23 12 SSE 1018,6 52 0 0,0
06.12.2018 05:00:00 3,0 -2,2 1,6 0,4 1,9 6,7 7 4 23 12 SSE 1019,6 48 0 0,0
06.12.2018 04:00:00 3,0 -2,2 1,8 0,4 2,0 6,7 11 6 20 11 SSE 1020,7 48 0 0,0
06.12.2018 03:00:00 3,1 -2,1 1,8 0,4 2,0 6,7 12 7 23 12 SSE 1021,3 46 0 0,0
06.12.2018 02:00:00 2,9 -1,6 1,9 0,4 2,0 6,7 11 6 19 10 SSE 1021,4 42 0 0,0
06.12.2018 01:00:00 2,4 -1,1 0,9 0,4 2,1 6,7 10 5 18 10 SE 1022,1 38 0 0,0
06.12.2018 00:00:00 2,0 -1,2 0,4 0,4 2,2 6,8 13 7 23 13 SE 1023,1 33 0 0,0

tt = temperature
td = dewpoint
tt 5cm = temperature 5cm
tt -5cm = temperature -5cm
tt -20cm = temperature -20cm
tt -100cm = temperature -100cm
ff = wind speed
fx = gusts
dd = wind direction
ppp = reduced air pressure
vv = visibility
sd = sunshine duration
rr = precipitation

Next stations